www.pogodaiklimat.ru

Погода и климат >> Архив погоды >> Казахстан >> Тайпак


ПОГОДА в Тайпаке

АРХИВ ПОГОДЫ в Тайпаке

Время (UTC), дата Ветер
(напр.,м/с)
 
Видим.   Явления Облачность Т
(С)
Тd
(С)
f
(%)
Тe
(С)
Тes
(С)
Комфортность P
(гПа)
Po
(гПа)
Тmin
(С)
Tmax
(С)
R
(мм)
R24
(мм)
S
(см)
09 15.10 СВ 1 10 км 3/0
[Ci fib]
+9.5 -6.5 32 +10 +16 1024.8 1024.6
12 15.10 СЗ 2 10 км 1/0
[Ci fib]
+10.5 -7.4 28 +10 +11 1025.0 1024.8
15 15.10 СЗ 1 н/о 3/0
[Ci fib]
+6.2 -7.5 37 +6 +6 1025.6 1025.4 +10.9
18 15.10 З 1 н/о 9/0
[Ac trans]
+5.7 -7.0 40 +5 +5 1025.9 1025.7 +10.9
21 15.10 ЮЗ 1 н/о 10/10 600 м
[Cb calv]
+5.7 -4.0 50 +5 +5 1026.1 1025.9
00 16.10 н/о н/о +6.3 -3.8 48 +5 +5 1026.0 1025.8
03 16.10 ЮЗ 3 10 км 10/10 600 м
[Cb calv]
+7.0 -2.8 50 +5 +5 1026.3 1026.1
06 16.10 З 3 10 км 10/10 600 м
[Cb calv]
+10.4 +6.8 78 +8 +8 1026.8 1026.6 +3.8
09 16.10 З 3 10 км 10/10 600 м
[Cb calv]
+13.1 +10.0 81 +12 +12 1026.4 1026.2
12 16.10 СЗ 2 10 км 10/10 600 м
[Cb calv]
+15.3 +9.9 70 +15 +15 1026.1 1025.9
15 16.10 ЮЗ 2 н/о 5/0
[Ac trans]
+11.6 +9.2 85 +10 +10 1025.9 1025.7 +15.5
18 16.10 ЮЗ 2 н/о ясно +8.8 +8.8 100 +7 +7 1026.4 1026.2 +15.5
21 16.10 ЮЗ 3 н/о ясно +7.2 +7.2 100 +4 +4 1025.8 1025.6
00 17.10 ЮЗ 5 н/о ясно +7.9 +7.9 100 +4 +4 1025.0 1024.8
03 17.10 ЮЗ 3 10 км 4/0
[Ci fib]
+7.5 +7.5 100 +4 +4 1024.1 1023.9
06 17.10 ЮЗ 5 10 км 3/0
[Ac trans]
+13.4 +11.3 87 +11 +13 1023.6 1023.4 +6.9
09 17.10 З 7 10 км пыльный позёмок {метель} 4/0
[Ac trans]
+19.5 +7.5 46 +20 +21 1021.9 1021.7
12 17.10 З 9 10 км пыльный позёмок {метель} 3/0
[Ac trans]
+20.8 +3.5 32 +21 +21 комфорт 1020.4 1020.2
15 17.10 З 3 н/о {метель} ясно +14.0 +4.9 54 +13 +13 1019.5 1019.3 +21.0
18 17.10 З 3 н/о {метель} ясно +11.1 +2.7 56 +10 +10 1019.7 1019.5 +21.0
21 17.10 СЗ 2 н/о ясно +8.9 +2.7 65 +7 +7 1020.5 1020.3
00 18.10 С 3 н/о ясно +6.6 +4.0 83 +4 +4 1021.7 1021.5
03 18.10 В 2 10 км 3/0
[Ci fib]
+5.1 +3.9 92 +2 +2 1023.1 1022.9
06 18.10 В 3 10 км 3/0
[Ci fib]
+9.5 +1.4 57 +8 +10 1024.9 1024.7 +5.1
09 18.10 СВ 3 10 км 3/0
[Ci fib]
+13.8 -1.8 34 +13 +17 1025.2 1025.0
12 18.10 С 2 10 км ясно +14.5 -5.7 24 +15 +16 1025.0 1024.8
15 18.10 ЮВ 1 н/о ясно +9.0 -4.3 39 +9 +9 1025.4 1025.2 +14.9
18 18.10 В 2 н/о ясно +5.3 -4.2 50 +3 +3 1025.6 1025.4 +14.9
21 18.10 С 1 н/о ясно +3.0 -3.6 62 +2 +2 1026.0 1025.8
00 19.10 штиль 0 н/о ясно -0.1 -4.3 73 -1 -1 1026.3 1026.1
03 19.10 штиль 0 10 км ясно -0.9 -3.1 85 -2 -2 1026.5 1026.3
06 19.10 Ю 1 10 км ясно +9.9 -1.3 46 +10 +13 1027.0 1026.8 -0.9
09 19.10 ЮЗ 3 10 км ясно +15.6 -4.3 25 +15 +20 1026.1 1025.9
12 19.10 ЮЗ 3 10 км ясно +16.2 -5.8 22 +16 +17 1025.2 1025.0
15 19.10 ЮЗ 1 н/о ясно +9.8 -4.1 37 +10 +10 1025.0 1024.8 +16.9
18 19.10 ЮЗ 2 н/о ясно +6.1 -4.9 45 +4 +4 1024.1 1023.9 +16.9
21 19.10 Ю 2 н/о ясно +4.9 -5.2 48 +3 +3 1023.7 1023.5
00 20.10 ЮЗ 2 н/о ясно +2.6 -4.2 61 -0 -0 1023.1 1022.9
03 20.10 З 1 10 км ясно +0.7 -2.6 79 -1 -1 1022.9 1022.7
06 20.10 Ю 2 10 км ясно +10.6 +1.4 53 +10 +12 1022.6 1022.4 +0.7
09 20.10 ЮЗ 4 10 км ясно +16.2 +0.2 34 +16 +19 1021.2 1021.0
12 20.10 ЮЗ 4 10 км ясно +17.2 +1.6 35 +17 +18 1019.5 1019.3
15 20.10 ЮЗ 2 н/о ясно +10.5 +2.2 56 +9 +9 1019.2 1019.0 +17.5
18 20.10 З 1 н/о ясно +6.3 +2.3 76 +5 +5 1018.9 1018.7 +17.5
21 20.10 З 2 н/о ясно +7.1 +4.3 82 +5 +5 1018.8 1018.6
00 21.10 ЮЗ 1 н/о 8/0
[Ac trans]
+6.1 +6.1 100 +5 +5 1018.7 1018.5
03 21.10 ЮЗ 1 10 км 10/10 600 м
[Cb calv]
+7.4 +6.5 94 +6 +6 1019.3 1019.1
06 21.10 ЮЗ 1 10 км 10/10 600 м
[Cb calv]
+12.7 +9.3 80 +13 +13 1020.2 1020.0 +3.7
09 21.10 СЗ 3 10 км 10/10 600 м
[Cb calv]
+17.5 +8.0 54 +18 +18 1020.6 1020.4
12 21.10 С 1 10 км 8/8 600 м
[Cb calv]
+17.1 +7.0 51 +18 +18 1020.6 1020.4
15 21.10 В 2 н/о 10/10 600 м
[Cb calv]
+14.9 +5.6 54 +15 +15 1021.8 1021.6 +18.5
18 21.10 СВ 1 н/о 10/10 600 м
[Cb calv]
+11.9 +4.0 58 +12 +12 1022.7 1022.5 +18.5
21 21.10 СВ 2 н/о 9/9 600 м
[Cb calv]
+10.3 +1.6 55 +9 +9 1023.5 1023.3
00 22.10 В 3 н/о 4/4 600 м
[Cb calv]
+5.9 +0.1 66 +3 +3 1023.9 1023.7
03 22.10 СВ 2 10 км 4/0
[Ci fib]
+3.5 -0.3 76 +1 +1 1024.5 1024.3

 

Местоположение метеостанции Тайпак (Западно-Казахстанская область, Казахстан): широта 49.05 долгота 51.87 высота над уровнем моря 2 м.

В архиве по умолчанию представлена погода в Тайпаке за последнюю неделю. Архивные данные за месяц целиком и за предыдущие месяцы, начиная с января 2011 года, Вы можете получить, выбрав интересующий диапазон дат из раскрывающегося списка и нажав кнопку "Ввод!".


*Определитесь, кто Вы:
робот инопланетянин человек

Внимание! Время в таблицах - всемирное. Для получения местного времени необходимо прибавить поправку, которая в Тайпаке равна 5 ч.

Смотрите также архив погоды в соседних городах и на ближайших метеорологических станциях:

Погода в Индерборском (Атырауская область, Казахстан) (62 км)
Погода в Карабау (Атырауская область, Казахстан) (102 км)
Погода в Жангала (Западно-Казахстанская область, Казахстан) (116 км)
Погода в Каратобе (Западно-Казахстанская область, Казахстан) (131 км)
Погода в Чапаево (Западно-Казахстанская область, Казахстан) (137 км)
Погода в Джамбейты (Западно-Казахстанская область, Казахстан) (143 км)
Погода в Махамбете (Атырауская область, Казахстан) (155 км)
Погода в Жалпактале (Западно-Казахстанская область, Казахстан) (186 км)
Погода в Макате (Атырауская область, Казахстан) (189 км)
Погода в Анкаты (Западно-Казахстанская область, Казахстан) (198 км)

Пояснения к столбцам:

Ветер - указаны скорость ветра в м/с - средняя за 10 мин, порывы в срок и между сроками (в фигурных скобках) и направление, откуда дует ветер: С - северный, СВ - северо-восточный, В - восточный, ЮВ - юго-восточный, Ю - южный, ЮЗ - юго-западный, З - западный, СЗ - северо-западный.
Видимость - горизонтальная дальность видимости в метрах или километрах. При видимости от 1 до 10 км при отсутствии осадков обычно наблюдается дымка, при ухудшении видимости до 1 км и менее - туман. В сухую погоду видимость может ухудшаться дымом, пылью или мглою.
Явления - указаны атмосферные явления, наблюдавшиеся в срок или в последний час перед сроком; фигурными скобками обозначены явления, наблюдавшиеся между сроками (за 1-3 часа до срока); квадратными скобками обозначены град или гололедные отложения с указанием их диаметра в мм.
Облачность - указаны через наклонную черту общая и нижняя облачность в баллах и высота нижней границы облаков в метрах; квадратными скобками обозначены формы облаков: Ci - перистые, Cs - перисто-слоистые, Cc - перисто-кучевые, Ac - высококучевые, As - высокослоистые, Sc - слоисто-кучевые, Ns - слоисто-дождевые, Cu - кучевые, Cb - кучево-дождевые. Подробнее классификацию облаков см. в Атласе облаков (PDF).
T - Температура воздуха - температура, измеренная на высоте 2 м над землей.
Td - Температура точки росы - температура, при понижении до которой содержащийся в воздухе водяной пар достигнет насыщения.
f - Относительная влажность воздуха - влажноcть воздуха, измеренная на высоте 2 м над землей.
Te - Эффективная температура - температура, которую ощущает одетый по сезону человек в тени. Характеристика душности погоды. При расчете учитывается влияние влажности воздуха и скорости ветра на теплоощущения человека.
Tes - Эффективная температура на солнце - температура, которую ощущает человек, с поправкой на солнечный нагрев. Характеристика знойности погоды. Зависит от высоты солнца над горизонтом, облачности и скорости ветра. Ночью, в пасмурную погоду, а также при ветре 12 м/с и более поправка равна нулю.
P - Атмосферное давление - приведенное к уровню моря атмосферное давление.
Po - Атмосферное давление - измеренное на уровне метеостанции атмосферное давление.
Tmin - Минимальная температура - минимум температуры воздуха на высоте 2 м над землей.
Tmax - Максимальная температура - максимум температуры воздуха на высоте 2 м над землей.
R - Количество осадков - Количество выпавших осадков за период времени, мм. При наведении курсора мыши на число - период времени, за который выпало указанное количество осадков.
R24 - Количество осадков - Количество выпавших осадков за 24 часа, мм.
S - Снежный покров - Высота снежного покрова, см. При наведении курсора мыши на число - состояние снежного покрова и степень покрытия местности в баллах.